Content
SEND FEEDBACK

Daily
Averages
Monthly
Summary
Canada

GLENDALE, ONTARIO


Home > North America > Canada > Ontario
Elevation: 725 feet     Latitude: 46 28N     Longitude: 084 30W

WEATHER
 
SELECT A DAY
Number of Records: 184,025;   Date Range: 1/1/95 - 8/26/14
 
SHARE

PRINT THIS DATA

[ ← Previous Day ]
WEATHER ALMANAC - FEBRUARY 13, 2013
[ Next Day → ]
[ °C ]   °F
Weather ElementAverageHighLow
Temperature23 °F32 °F (4:00 pm)12.2 °F (2:00 am)
Dewpoint19.9 °F24.8 °F (2:00 pm)10.4 °F (2:00 am)
Humidity87.5 %100 % (6:00 am)72 % (1:00 pm)
Barometer29.71 in29.81 in (1:00 am)29.66 in (3:00 pm)
Wind Speed4.7 mph10.4 mph (2:00 pm)
Weather ElementAverage
Visibility13.9 mi
Wind DirectionESE (128.9 °)

Weather ElementTotal
Precipitation---
Heating Degree Days42.9 (Base 65)
Averaged from 28 records on February 13, 2013
WEATHER CONDITIONS BREAKOUT
WIND DIRECTION BREAKOUT
WEATHER BY HOUR - FEBRUARY 13, 2013
[ °C ]   °F
Local TimeTemperatureDewpointHumidityBarometerVisibilityWind DirectionWind SpeedGust SpeedPrecipitationEventsConditions
1:00 AM19.0 °F15.0 °F77 %29.81 in15.0 miSE (140°)4.6 mph
1:00 AM19.4 °F15.8 °F86 %29.81 in15.0 miSE (140°)4.6 mphMostly Cloudy
2:00 AM12.2 °F10.4 °F92 %29.79 in15.0 miENE (70°)2.3 mphScattered Clouds
3:00 AM14.0 °F12.2 °F93 %29.78 in15.0 miNE (50°)3.5 mphMostly Cloudy
4:00 AM12.2 °F10.4 °F92 %29.76 in15.0 miEast (80°)4.6 mphOvercast
5:00 AM15.8 °F14.0 °F93 %29.75 in15.0 miENE (60°)3.5 mphMostly Cloudy
6:00 AM15.8 °F15.8 °F100 %29.73 in15.0 miNE (50°)4.6 mphOvercast
7:00 AM19.4 °F17.6 °F93 %29.72 in15.0 miNE (50°)3.5 mphOvercast
7:00 AM19.0 °F17.0 °F88 %29.72 in15.0 miENE (70°)4.6 mphOvercast
8:00 AM19.4 °F17.6 °F93 %29.72 in13.0 miNE (40°)3.5 mphOvercast
9:00 AM21.2 °F19.4 °F93 %29.70 in12.0 miENE (70°)3.5 mphOvercast
9:31 AM21.2 °F19.4 °F93 %29.70 in12.0 miNorth (10°)4.6 mphOvercast
10:00 AM23.0 °F21.2 °F93 %29.69 in12.0 miNE (50°)3.5 mphOvercast
11:00 AM26.6 °F23.0 °F86 %29.69 in12.0 miSW (230°)4.6 mphMostly Cloudy
12:00 PM28.4 °F23.0 °F80 %29.69 in10.0 miNW (310°)8.1 mphMostly Cloudy
1:00 PM28.0 °F23.0 °F72 %29.67 in12.0 miWNW (300°)9.2 mph
1:00 PM28.4 °F23.0 °F80 %29.67 in12.0 miWNW (300°)9.2 mphScattered Clouds
2:00 PM30.2 °F24.8 °F80 %29.67 in12.0 miWNW (300°)10.4 mphPartly Cloudy
3:00 PM30.2 °F23.0 °F75 %29.66 in12.0 miWNW (290°)9.2 mphMostly Cloudy
4:00 PM32.0 °F24.8 °F75 %29.67 in15.0 miWSW (240°)4.6 mphMostly Cloudy
5:00 PM30.2 °F24.8 °F80 %29.67 in15.0 miCalmMostly Cloudy
6:00 PM28.4 °F24.8 °F86 %29.68 in15.0 miCalmPartly Cloudy
7:00 PM26.0 °F23.0 °F84 %29.68 in15.0 miSSW (200°)4.6 mph
7:00 PM26.6 °F23.0 °F86 %29.68 in15.0 miSSW (210°)5.8 mphPartly Cloudy
8:00 PM28.4 °F24.8 °F86 %29.69 in15.0 miSSW (200°)4.6 mphPartly Cloudy
9:00 PM19.4 °F19.4 °F100 %29.70 in15.0 miCalmScattered Clouds
10:00 PM23.0 °F23.0 °F100 %29.69 in15.0 miEast (80°)4.6 mphMostly Cloudy
11:00 PM26.6 °F24.8 °F93 %29.68 in15.0 miENE (70°)4.6 mphOvercast
Hourly data recorded from CYAM, located miles away from Glendale, Ontario







STORIES FROM OUR PARTNERS